AirNav   Air Wisconsin Up To $57,000 Bonus
 
 1105 users online  

2A8 Addison Municipal Airport
Addison, Alabama, USA

GOING TO ADDISON?


FAA INFORMATION EFFECTIVE 03 DECEMBER 2020

Location

FAA Identifier: 2A8
Lat/Long: 34-13-01.7100N 087-09-29.3700W
34-13.028500N 087-09.489500W
34.2171417,-87.1581583
(estimated)
Elevation: 786 ft. / 240 m (estimated)
Variation: 00E (1980)
From city: 1 mile NE of ADDISON, AL
Time zone: UTC -6 (UTC -5 during Daylight Saving Time)
Zip code: 35540

Airport Operations

Airport use: Open to the public
Activation date: 12/1986
Control tower: no
ARTCC: MEMPHIS CENTER
FSS: ANNISTON FLIGHT SERVICE STATION
NOTAMs facility: ANB (NOTAM-D service available)
Attendance: UNATNDD
Wind indicator: yes
Segmented circle: no

Airport Communications

CTAF: 122.9
WX AWOS-3PT at CMD (15 nm E): 124.175 (256-775-7476)

Nearby radio navigation aids

VOR radial/distance  VOR name  Freq  Var
DCUr204/28.0DECATUR VOR/DME112.8001W
MSLr150/33.7MUSCLE SHOALS VORTAC116.5001E
VUZr337/35.2VULCAN VORTAC114.4002E

Airport Services

Parking: tiedowns

Runway Information

Runway 5/23

Dimensions: 2644 x 112 ft. / 806 x 34 m
Surface: turf, in good condition
Runway edge markings: MKD BY WHITE CONES WITH BLACK TIPS.
RUNWAY 5  RUNWAY 23
Latitude: 34-12.885000N34-13.172000N
Longitude: 087-09.687000W087-09.292000W
Elevation: 786.0 ft.776.0 ft.
Traffic pattern: leftleft
Runway heading: 049229
Markings: NSTDNSTD
Obstructions: 32 ft. trees, 585 ft. from runway, 58 ft. left of centerline, 18:1 slope to clear25 ft. trees, 641 ft. from runway, 27 ft. right of centerline, 25:1 slope to clear

Airport Ownership and Management from official FAA records

Ownership: Publicly-owned
Owner: CITY OF ADDISON
PO BOX 98
ADDISON, AL 35540
Phone 256-747-2971
Manager: RANDALL WISENER
1315 SARDIS AIRPORT ROAD
ADDISON, AL 35540
Phone 907-312-4240

Airport Operational Statistics

Aircraft based on the field: 4
Single engine airplanes: 4
    
Aircraft operations: avg 27/week *
85% transient general aviation
15% local general aviation
* for 12-month period ending 01 February 2019

Additional Remarks

FOR CD CTC MEMPHIS ARTCC AT 901-368-8453.

Instrument Procedures

There are no published instrument procedures at 2A8.

Some nearby airports with instrument procedures:

KCMD - Cullman Regional Airport-Folsom Field (15 nm E)
5M0 - Hartselle-Morgan County Regional Airport (16 nm NE)
KJFX - Walker County Airport-Bevill Field (20 nm S)
1M4 - Posey Field Airport (22 nm W)
9A4 - Courtland Airport (28 nm N)
 
Loc | Ops | Rwys | IFR | FBO | Links
Com | Nav | Svcs | Stats | Notes
Area around 2A8 (Addison Municipal Airport)
 
Road maps at: MapQuest Bing Google
 
Aerial photo
No photo
 
Sectional chart

 
Airport distance calculator
Flying to Addison Municipal Airport? Find the distance to fly.

From to 2A8

Sunrise and sunset
Times for 04-Dec-2020
 Local
(UTC-6)
 Zulu
(UTC)
Morning civil twilight06:1312:13
Sunrise06:4112:41
Sunset16:3822:38
Evening civil twilight17:0523:05

Current date and time
Zulu (UTC)  05-Dec-2020 00:05:06
Local (UTC-6)  04-Dec-2020 18:05:06
 
METAR
KCMD 
15nm E 
042355Z AUTO RMK AO2 6//// PWINO PNO TSNO
KJFX 
20nm S 
042355Z AUTO 00000KT 10SM OVC036 07/04 A3013 RMK AO2 PWINO
K1M4 
22nm W 
042356Z AUTO 31008KT 10SM OVC029 06/03 A3013 RMK AO2 SLP745 T00610028 10072 20050 53012
KDCU 
28nm N 
042353Z AUTO 30008KT 10SM OVC041 07/01 A3010 RMK AO2 SLP195 T00670011 10083 20061 51017
TAF
KHSV 
32nm NE 
041959Z 0420/0518 29011G16KT P6SM SCT005 OVC030 TEMPO 0420/0422 BKN040 FM042300 30010KT P6SM SCT009 OVC025 FM050200 30006KT P6SM OVC020 FM050600 31005KT P6SM SCT025 FM051000 VRB03KT 6SM BR SKC TEMPO 0511/0513 4SM BR SKC FM051400 VRB04KT P6SM SKC
KMSL 
39nm NW 
041957Z 0420/0518 29010KT P6SM FEW011 OVC040 FM042300 29008KT P6SM SCT012 BKN022 FM050100 30007KT P6SM SCT010 BKN035 FM051000 VRB03KT 6SM BR SKC TEMPO 0510/0513 4SM BR SKC FM051400 VRB04KT P6SM SKC
NOTAMs
Click for the latest NOTAMs
NOTAMs are issued by the DoD/FAA and will open in a separate window not controlled by AirNav.

 

 
 

Would you like to see your business listed on this page?

 If your business provides an interesting product or service to pilots, flight crews, aircraft, or users of the Addison Municipal Airport, you should consider listing it here.  To start the listing process, click on the button below
 
Add a business
 

Other Pages about Addison Municipal Airport

Update a link
 
Copyright © AirNav, LLC. All rights reserved. Privacy Policy  Contact